Location: ????????
(60.4333°N, 46.4710°E)
Time: 19:54:53
(UTC+00:00)

Cosmos 405 Rocket - Pass Details

Date: 25 November 2020
Orbit: 489 x 553 km, 81.3° (Epoch: 17 January)

Event Time Altitude Azimuth Distance (km) Brightness Sun altitude
Rises 13:09:49 0° 344° (NNW) 2,644 6.2 -7.5°
Reaches altitude 10° 13:11:57 10° 348° (NNW) 1,763 5.2 -7.8°
Maximum altitude 13:15:48 61° 69° (ENE) 606 2.7 -8.2°
Drops below altitude 10° 13:19:42 10° 151° (SSE) 1,788 5.4 -8.6°
Sets 13:21:53 0° 155° (SSE) 2,685 6.4 -8.8°
